owner,sensor,date,latitude,longitude,vertical_datum,mass_concentration_of_oxygen_in_sea_water,qcFlag 
SCCF RECON,ioos:station:SCCF:12:1,2009-02-01T00:00:00Z,26.4966,-82.1479,1.999,7.17,1111122 
SCCF RECON,ioos:station:SCCF:12:1,2009-02-01T01:00:00Z,26.4966,-82.1479,1.901,6.98,1111122 
SCCF RECON,ioos:station:SCCF:12:1,2009-02-01T02:00:00Z,26.4966,-82.1479,1.81,6.92,1111122 
SCCF RECON,ioos:station:SCCF:12:1,2009-02-01T03:00:00Z,26.4966,-82.1479,1.75,6.97,1111122 
SCCF RECON,ioos:station:SCCF:12:1,2009-02-01T04:00:00Z,26.4966,-82.1479,1.72,6.89,1111122 
SCCF RECON,ioos:station:SCCF:12:1,2009-02-01T05:00:00Z,26.4966,-82.1479,1.74,6.85,1111122 
SCCF RECON,ioos:station:SCCF:12:1,2009-02-01T06:00:00Z,26.4966,-82.1479,1.82,6.94,1111122 
SCCF RECON,ioos:station:SCCF:12:1,2009-02-01T07:00:00Z,26.4966,-82.1479,1.913,7.02,1111122 
SCCF RECON,ioos:station:SCCF:12:1,2009-02-01T08:00:00Z,26.4966,-82.1479,1.99,6.96,1111122 
SCCF RECON,ioos:station:SCCF:12:1,2009-02-01T09:00:00Z,26.4966,-82.1479,2.037,6.91,1111122 
SCCF RECON,ioos:station:SCCF:12:1,2009-02-01T10:00:00Z,26.4966,-82.1479,2.069,6.71,1111122 
SCCF RECON,ioos:station:SCCF:12:1,2009-02-01T11:00:00Z,26.4966,-82.1479,2.057,6.76,1111122 
SCCF RECON,ioos:station:SCCF:12:1,2009-02-01T12:00:00Z,26.4966,-82.1479,1.999,6.77,1111122 
SCCF RECON,ioos:station:SCCF:12:1,2009-02-01T13:00:00Z,26.4966,-82.1479,1.929,6.78,1111122 
SCCF RECON,ioos:station:SCCF:12:1,2009-02-01T14:00:00Z,26.4966,-82.1479,1.871,6.78,1111122 
SCCF RECON,ioos:station:SCCF:12:1,2009-02-01T15:00:00Z,26.4966,-82.1479,1.849,6.87,1111122 
SCCF RECON,ioos:station:SCCF:12:1,2009-02-01T16:00:00Z,26.4966,-82.1479,1.86,7.01,1111122 
SCCF RECON,ioos:station:SCCF:12:1,2009-02-01T17:00:00Z,26.4966,-82.1479,1.928,7.14,1111122 
SCCF RECON,ioos:station:SCCF:12:1,2009-02-01T18:00:00Z,26.4966,-82.1479,2.019,7.21,1111122 
SCCF RECON,ioos:station:SCCF:12:1,2009-02-01T19:00:00Z,26.4966,-82.1479,2.11,7.27,1111122 
SCCF RECON,ioos:station:SCCF:12:1,2009-02-01T20:00:00Z,26.4966,-82.1479,2.2,7.31,1111122 
SCCF RECON,ioos:station:SCCF:12:1,2009-02-01T21:00:00Z,26.4966,-82.1479,2.27,7.09,1111122 
SCCF RECON,ioos:station:SCCF:12:1,2009-02-01T22:00:00Z,26.4966,-82.1479,2.3,7.45,1111122 
SCCF RECON,ioos:station:SCCF:12:1,2009-02-01T23:00:00Z,26.4966,-82.1479,2.28,7.3,1111122 
SCCF RECON,ioos:station:SCCF:12:1,2009-02-02T00:00:00Z,26.4966,-82.1479,2.19,7.38,1111122 
SCCF RECON,ioos:station:SCCF:12:1,2009-02-02T01:00:00Z,26.4966,-82.1479,2.08,7.22,1111122 
SCCF RECON,ioos:station:SCCF:12:1,2009-02-02T02:00:00Z,26.4966,-82.1479,1.975,7.21,1111122 
SCCF RECON,ioos:station:SCCF:12:1,2009-02-02T03:00:00Z,26.4966,-82.1479,1.88,7.4,1111122 
SCCF RECON,ioos:station:SCCF:12:1,2009-02-02T04:00:00Z,26.4966,-82.1479,1.8,7.44,1111122 
SCCF RECON,ioos:station:SCCF:12:1,2009-02-02T05:00:00Z,26.4966,-82.1479,1.751,7.39,1111122 
SCCF RECON,ioos:station:SCCF:12:1,2009-02-02T06:00:00Z,26.4966,-82.1479,1.77,7.1,1111122 
SCCF RECON,ioos:station:SCCF:12:1,2009-02-02T07:00:00Z,26.4966,-82.1479,1.85,6.99,1111122 
SCCF RECON,ioos:station:SCCF:12:1,2009-02-02T08:00:00Z,26.4966,-82.1479,1.93,6.98,1111122 
SCCF RECON,ioos:station:SCCF:12:1,2009-02-02T09:00:00Z,26.4966,-82.1479,2.01,6.9,1111122 
SCCF RECON,ioos:station:SCCF:12:1,2009-02-02T10:00:00Z,26.4966,-82.1479,2.07,6.73,1111122 
SCCF RECON,ioos:station:SCCF:12:1,2009-02-02T11:00:00Z,26.4966,-82.1479,2.11,6.73,1111122 
SCCF RECON,ioos:station:SCCF:12:1,2009-02-02T12:00:00Z,26.4966,-82.1479,2.15,6.91,1111122 
SCCF RECON,ioos:station:SCCF:12:1,2009-02-02T13:00:00Z,26.4966,-82.1479,2.121,6.95,1111122 
SCCF RECON,ioos:station:SCCF:12:1,2009-02-02T14:00:00Z,26.4966,-82.1479,2.06,6.93,1111122 
SCCF RECON,ioos:station:SCCF:12:1,2009-02-02T15:00:00Z,26.4966,-82.1479,2.018,6.93,1111122 
SCCF RECON,ioos:station:SCCF:12:1,2009-02-02T16:00:00Z,26.4966,-82.1479,2.001,7.0,1111122 
SCCF RECON,ioos:station:SCCF:12:1,2009-02-02T17:00:00Z,26.4966,-82.1479,2.026,6.94,1111122 
SCCF RECON,ioos:station:SCCF:12:1,2009-02-02T18:00:00Z,26.4966,-82.1479,2.076,7.06,1111122 
SCCF RECON,ioos:station:SCCF:12:1,2009-02-02T19:00:00Z,26.4966,-82.1479,2.17,7.16,1111122 
SCCF RECON,ioos:station:SCCF:12:1,2009-02-02T20:00:00Z,26.4966,-82.1479,2.297,7.17,1111122 
SCCF RECON,ioos:station:SCCF:12:1,2009-02-02T21:00:00Z,26.4966,-82.1479,2.4,7.11,1111122 
SCCF RECON,ioos:station:SCCF:12:1,2009-02-02T22:00:00Z,26.4966,-82.1479,2.4,7.03,1111122 
SCCF RECON,ioos:station:SCCF:12:1,2009-02-02T23:00:00Z,26.4966,-82.1479,2.44,7.08,1111122 
SCCF RECON,ioos:station:SCCF:12:1,2009-02-03T00:00:00Z,26.4966,-82.1479,2.459,6.95,1111122 
SCCF RECON,ioos:station:SCCF:12:1,2009-02-03T01:00:00Z,26.4966,-82.1479,2.33,6.95,1111122 
SCCF RECON,ioos:station:SCCF:12:1,2009-02-03T02:00:00Z,26.4966,-82.1479,2.201,6.82,1111122 
SCCF RECON,ioos:station:SCCF:12:1,2009-02-03T03:00:00Z,26.4966,-82.1479,2.11,6.71,1111122 
SCCF RECON,ioos:station:SCCF:12:1,2009-02-03T04:00:00Z,26.4966,-82.1479,2.02,6.8,1111122 
SCCF RECON,ioos:station:SCCF:12:1,2009-02-03T05:00:00Z,26.4966,-82.1479,1.94,6.85,1111122 
SCCF RECON,ioos:station:SCCF:12:1,2009-02-03T06:00:00Z,26.4966,-82.1479,1.852,6.79,1111122 
SCCF RECON,ioos:station:SCCF:12:1,2009-02-03T07:00:00Z,26.4966,-82.1479,1.78,6.72,1111122 
SCCF RECON,ioos:station:SCCF:12:1,2009-02-03T08:00:00Z,26.4966,-82.1479,1.768,6.69,1111122 
SCCF RECON,ioos:station:SCCF:12:1,2009-02-03T09:00:00Z,26.4966,-82.1479,1.829,6.61,1111122 
SCCF RECON,ioos:station:SCCF:12:1,2009-02-03T10:00:00Z,26.4966,-82.1479,1.9,6.56,1111122 
SCCF RECON,ioos:station:SCCF:12:1,2009-02-03T11:00:00Z,26.4966,-82.1479,2.04,6.46,1111122 
SCCF RECON,ioos:station:SCCF:12:1,2009-02-03T12:00:00Z,26.4966,-82.1479,2.164,6.49,1111122 
SCCF RECON,ioos:station:SCCF:12:1,2009-02-03T13:00:00Z,26.4966,-82.1479,2.115,6.54,1111122 
SCCF RECON,ioos:station:SCCF:12:1,2009-02-03T14:00:00Z,26.4966,-82.1479,2.037,6.58,1111122 
SCCF RECON,ioos:station:SCCF:12:1,2009-02-03T15:00:00Z,26.4966,-82.1479,2.007,6.65,1111122 
SCCF RECON,ioos:station:SCCF:12:1,2009-02-03T16:00:00Z,26.4966,-82.1479,1.994,6.74,1111122 
SCCF RECON,ioos:station:SCCF:12:1,2009-02-03T17:00:00Z,26.4966,-82.1479,2.006,6.74,1111122 
SCCF RECON,ioos:station:SCCF:12:1,2009-02-03T18:00:00Z,26.4966,-82.1479,2.022,6.94,1111122 
SCCF RECON,ioos:station:SCCF:12:1,2009-02-03T19:00:00Z,26.4966,-82.1479,2.06,7.04,1111122 
SCCF RECON,ioos:station:SCCF:12:1,2009-02-03T20:00:00Z,26.4966,-82.1479,2.096,7.1,1111122 
SCCF RECON,ioos:station:SCCF:12:1,2009-02-03T21:00:00Z,26.4966,-82.1479,2.126,7.2,1111122 
SCCF RECON,ioos:station:SCCF:12:1,2009-02-03T22:00:00Z,26.4966,-82.1479,2.177,7.31,1111122 
SCCF RECON,ioos:station:SCCF:12:1,2009-02-03T23:00:00Z,26.4966,-82.1479,2.201,7.17,1111122 
SCCF RECON,ioos:station:SCCF:12:1,2009-02-04T00:00:00Z,26.4966,-82.1479,2.208,7.2,1111122 
SCCF RECON,ioos:station:SCCF:12:1,2009-02-04T01:00:00Z,26.4966,-82.1479,2.191,7.2,1111122 
SCCF RECON,ioos:station:SCCF:12:1,2009-02-04T02:00:00Z,26.4966,-82.1479,2.144,7.17,1111122 
SCCF RECON,ioos:station:SCCF:12:1,2009-02-04T03:00:00Z,26.4966,-82.1479,2.062,7.1,1111122 
SCCF RECON,ioos:station:SCCF:12:1,2009-02-04T04:00:00Z,26.4966,-82.1479,1.967,7.11,1111122 
SCCF RECON,ioos:station:SCCF:12:1,2009-02-04T05:00:00Z,26.4966,-82.1479,1.876,7.12,1111122 
SCCF RECON,ioos:station:SCCF:12:1,2009-02-04T06:00:00Z,26.4966,-82.1479,1.795,7.1,1111122 
SCCF RECON,ioos:station:SCCF:12:1,2009-02-04T07:00:00Z,26.4966,-82.1479,1.725,7.08,1111122 
SCCF RECON,ioos:station:SCCF:12:1,2009-02-04T08:00:00Z,26.4966,-82.1479,1.671,7.0,1111122 
SCCF RECON,ioos:station:SCCF:12:1,2009-02-04T09:00:00Z,26.4966,-82.1479,1.662,6.97,1111122 
SCCF RECON,ioos:station:SCCF:12:1,2009-02-04T10:00:00Z,26.4966,-82.1479,1.718,6.91,1111122 
SCCF RECON,ioos:station:SCCF:12:1,2009-02-04T11:00:00Z,26.4966,-82.1479,1.84,6.78,1111122 
SCCF RECON,ioos:station:SCCF:12:1,2009-02-04T12:00:00Z,26.4966,-82.1479,1.957,6.75,1111122 
SCCF RECON,ioos:station:SCCF:12:1,2009-02-04T13:00:00Z,26.4966,-82.1479,2.103,6.81,1111122 
SCCF RECON,ioos:station:SCCF:12:1,2009-02-04T14:00:00Z,26.4966,-82.1479,2.156,6.82,1111122 
SCCF RECON,ioos:station:SCCF:12:1,2009-02-04T15:00:00Z,26.4966,-82.1479,2.151,6.9,1111122 
SCCF RECON,ioos:station:SCCF:12:1,2009-02-04T16:00:00Z,26.4966,-82.1479,2.119,6.99,1111122 
SCCF RECON,ioos:station:SCCF:12:1,2009-02-04T17:00:00Z,26.4966,-82.1479,2.089,7.06,1111122 
SCCF RECON,ioos:station:SCCF:12:1,2009-02-04T18:00:00Z,26.4966,-82.1479,2.076,7.07,1111122 
SCCF RECON,ioos:station:SCCF:12:1,2009-02-04T19:00:00Z,26.4966,-82.1479,2.095,7.23,1111122 
SCCF RECON,ioos:station:SCCF:12:1,2009-02-04T20:00:00Z,26.4966,-82.1479,2.143,7.29,1111122 
SCCF RECON,ioos:station:SCCF:12:1,2009-02-04T21:00:00Z,26.4966,-82.1479,2.188,7.38,1111122 
SCCF RECON,ioos:station:SCCF:12:1,2009-02-04T22:00:00Z,26.4966,-82.1479,2.213,7.41,1111122 
SCCF RECON,ioos:station:SCCF:12:1,2009-02-04T23:00:00Z,26.4966,-82.1479,2.249,7.35,1111122 
SCCF RECON,ioos:station:SCCF:12:1,2009-02-05T00:00:00Z,26.4966,-82.1479,2.284,7.28,1111122 
SCCF RECON,ioos:station:SCCF:12:1,2009-02-05T01:00:00Z,26.4966,-82.1479,2.305,7.26,1111122 
SCCF RECON,ioos:station:SCCF:12:1,2009-02-05T02:00:00Z,26.4966,-82.1479,2.302,7.24,1111122 
SCCF RECON,ioos:station:SCCF:12:1,2009-02-05T03:00:00Z,26.4966,-82.1479,2.237,7.2,1111122 
SCCF RECON,ioos:station:SCCF:12:1,2009-02-05T04:00:00Z,26.4966,-82.1479,2.155,7.23,1111122 
SCCF RECON,ioos:station:SCCF:12:1,2009-02-05T05:00:00Z,26.4966,-82.1479,2.07,7.24,1111122 
SCCF RECON,ioos:station:SCCF:12:1,2009-02-05T06:00:00Z,26.4966,-82.1479,1.943,7.28,1111122 
SCCF RECON,ioos:station:SCCF:12:1,2009-02-05T07:00:00Z,26.4966,-82.1479,1.817,7.26,1111122 
SCCF RECON,ioos:station:SCCF:12:1,2009-02-05T08:00:00Z,26.4966,-82.1479,1.698,7.26,1111122 
SCCF RECON,ioos:station:SCCF:12:1,2009-02-05T09:00:00Z,26.4966,-82.1479,1.599,7.3,1111122 
SCCF RECON,ioos:station:SCCF:12:1,2009-02-05T10:00:00Z,26.4966,-82.1479,1.53,7.27,1111122 
SCCF RECON,ioos:station:SCCF:12:1,2009-02-05T11:00:00Z,26.4966,-82.1479,1.501,7.26,1111122 
SCCF RECON,ioos:station:SCCF:12:1,2009-02-05T12:00:00Z,26.4966,-82.1479,1.558,7.19,1111122 
SCCF RECON,ioos:station:SCCF:12:1,2009-02-05T13:00:00Z,26.4966,-82.1479,1.675,7.26,1111122 
SCCF RECON,ioos:station:SCCF:12:1,2009-02-05T14:00:00Z,26.4966,-82.1479,1.796,7.33,1111122 
SCCF RECON,ioos:station:SCCF:12:1,2009-02-05T15:00:00Z,26.4966,-82.1479,1.879,7.45,1111122 
SCCF RECON,ioos:station:SCCF:12:1,2009-02-05T16:00:00Z,26.4966,-82.1479,1.946,7.48,1111122 
SCCF RECON,ioos:station:SCCF:12:1,2009-02-05T17:00:00Z,26.4966,-82.1479,1.979,7.61,1111122 
SCCF RECON,ioos:station:SCCF:12:1,2009-02-05T18:00:00Z,26.4966,-82.1479,1.983,7.61,1111122 
SCCF RECON,ioos:station:SCCF:12:1,2009-02-05T19:00:00Z,26.4966,-82.1479,1.98,7.68,1111122 
SCCF RECON,ioos:station:SCCF:12:1,2009-02-05T20:00:00Z,26.4966,-82.1479,1.983,7.74,1111122 
SCCF RECON,ioos:station:SCCF:12:1,2009-02-05T21:00:00Z,26.4966,-82.1479,2.044,7.79,1111122 
SCCF RECON,ioos:station:SCCF:12:1,2009-02-05T22:00:00Z,26.4966,-82.1479,2.141,7.73,1111122 
SCCF RECON,ioos:station:SCCF:12:1,2009-02-05T23:00:00Z,26.4966,-82.1479,2.238,7.62,1111122 
SCCF RECON,ioos:station:SCCF:12:1,2009-02-06T00:00:00Z,26.4966,-82.1479,2.314,7.59,1111122 
SCCF RECON,ioos:station:SCCF:12:1,2009-02-06T01:00:00Z,26.4966,-82.1479,2.385,7.68,1111122 
SCCF RECON,ioos:station:SCCF:12:1,2009-02-06T02:00:00Z,26.4966,-82.1479,2.408,7.62,1111122 
SCCF RECON,ioos:station:SCCF:12:1,2009-02-06T03:00:00Z,26.4966,-82.1479,2.364,7.63,1111122 
SCCF RECON,ioos:station:SCCF:12:1,2009-02-06T04:00:00Z,26.4966,-82.1479,2.282,7.68,1111122 
SCCF RECON,ioos:station:SCCF:12:1,2009-02-06T05:00:00Z,26.4966,-82.1479,2.168,7.67,1111122 
SCCF RECON,ioos:station:SCCF:12:1,2009-02-06T06:00:00Z,26.4966,-82.1479,2.046,7.71,1111122 
SCCF RECON,ioos:station:SCCF:12:1,2009-02-06T07:00:00Z,26.4966,-82.1479,1.923,7.64,1111122 
SCCF RECON,ioos:station:SCCF:12:1,2009-02-06T08:00:00Z,26.4966,-82.1479,1.806,7.57,1111122 
SCCF RECON,ioos:station:SCCF:12:1,2009-02-06T09:00:00Z,26.4966,-82.1479,1.699,7.62,1111122 
SCCF RECON,ioos:station:SCCF:12:1,2009-02-06T10:00:00Z,26.4966,-82.1479,1.609,7.57,1111122 
SCCF RECON,ioos:station:SCCF:12:1,2009-02-06T11:00:00Z,26.4966,-82.1479,1.557,7.47,1111122 
SCCF RECON,ioos:station:SCCF:12:1,2009-02-06T12:00:00Z,26.4966,-82.1479,1.602,7.63,1111122 
SCCF RECON,ioos:station:SCCF:12:1,2009-02-06T13:00:00Z,26.4966,-82.1479,1.744,7.62,1111122 
SCCF RECON,ioos:station:SCCF:12:1,2009-02-06T14:00:00Z,26.4966,-82.1479,1.887,7.73,1111122 
SCCF RECON,ioos:station:SCCF:12:1,2009-02-06T15:00:00Z,26.4966,-82.1479,1.998,7.79,1111122 
SCCF RECON,ioos:station:SCCF:12:1,2009-02-06T16:00:00Z,26.4966,-82.1479,2.091,7.85,1111122 
SCCF RECON,ioos:station:SCCF:12:1,2009-02-06T17:00:00Z,26.4966,-82.1479,2.15,7.81,1111122 
SCCF RECON,ioos:station:SCCF:12:1,2009-02-06T18:00:00Z,26.4966,-82.1479,2.15,7.87,1111122 
SCCF RECON,ioos:station:SCCF:12:1,2009-02-06T19:00:00Z,26.4966,-82.1479,2.11,7.95,1111122 
SCCF RECON,ioos:station:SCCF:12:1,2009-02-06T20:00:00Z,26.4966,-82.1479,2.076,7.9,1111122 
SCCF RECON,ioos:station:SCCF:12:1,2009-02-06T21:00:00Z,26.4966,-82.1479,2.106,7.95,1111122 
SCCF RECON,ioos:station:SCCF:12:1,2009-02-06T22:00:00Z,26.4966,-82.1479,2.19,7.96,1111122 
SCCF RECON,ioos:station:SCCF:12:1,2009-02-06T23:00:00Z,26.4966,-82.1479,2.29,7.93,1111122 
SCCF RECON,ioos:station:SCCF:12:1,2009-02-07T00:00:00Z,26.4966,-82.1479,2.377,7.94,1111122 
SCCF RECON,ioos:station:SCCF:12:1,2009-02-07T01:00:00Z,26.4966,-82.1479,2.45,7.92,1111122 
SCCF RECON,ioos:station:SCCF:12:1,2009-02-07T02:00:00Z,26.4966,-82.1479,2.488,7.97,1111122 
SCCF RECON,ioos:station:SCCF:12:1,2009-02-07T03:00:00Z,26.4966,-82.1479,2.5,7.92,1111122 
SCCF RECON,ioos:station:SCCF:12:1,2009-02-07T04:00:00Z,26.4966,-82.1479,2.47,7.91,1111122 
SCCF RECON,ioos:station:SCCF:12:1,2009-02-07T05:00:00Z,26.4966,-82.1479,2.4,7.88,1111122 
SCCF RECON,ioos:station:SCCF:12:1,2009-02-07T06:00:00Z,26.4966,-82.1479,2.269,7.84,1111122 
SCCF RECON,ioos:station:SCCF:12:1,2009-02-07T07:00:00Z,26.4966,-82.1479,2.12,7.81,1111122 
SCCF RECON,ioos:station:SCCF:12:1,2009-02-07T08:00:00Z,26.4966,-82.1479,1.97,7.84,1111122 
SCCF RECON,ioos:station:SCCF:12:1,2009-02-07T09:00:00Z,26.4966,-82.1479,1.828,7.82,1111122 
SCCF RECON,ioos:station:SCCF:12:1,2009-02-07T10:00:00Z,26.4966,-82.1479,1.699,7.76,1111122 
SCCF RECON,ioos:station:SCCF:12:1,2009-02-07T11:00:00Z,26.4966,-82.1479,1.6,7.75,1111122 
SCCF RECON,ioos:station:SCCF:12:1,2009-02-07T12:00:00Z,26.4966,-82.1479,1.56,7.72,1111122 
SCCF RECON,ioos:station:SCCF:12:1,2009-02-07T13:00:00Z,26.4966,-82.1479,1.672,7.73,1111122 
SCCF RECON,ioos:station:SCCF:12:1,2009-02-07T14:00:00Z,26.4966,-82.1479,1.855,7.76,1111122 
SCCF RECON,ioos:station:SCCF:12:1,2009-02-07T15:00:00Z,26.4966,-82.1479,2.0,7.81,1111122 
SCCF RECON,ioos:station:SCCF:12:1,2009-02-07T16:00:00Z,26.4966,-82.1479,2.123,7.84,1111122 
SCCF RECON,ioos:station:SCCF:12:1,2009-02-07T17:00:00Z,26.4966,-82.1479,2.205,7.88,1111122 
SCCF RECON,ioos:station:SCCF:12:1,2009-02-07T18:00:00Z,26.4966,-82.1479,2.242,7.94,1111122 
SCCF RECON,ioos:station:SCCF:12:1,2009-02-07T19:00:00Z,26.4966,-82.1479,2.214,7.96,1111122 
SCCF RECON,ioos:station:SCCF:12:1,2009-02-07T20:00:00Z,26.4966,-82.1479,2.141,7.92,1111122 
SCCF RECON,ioos:station:SCCF:12:1,2009-02-07T21:00:00Z,26.4966,-82.1479,2.084,7.93,1111122 
SCCF RECON,ioos:station:SCCF:12:1,2009-02-07T22:00:00Z,26.4966,-82.1479,2.089,7.9,1111122 
SCCF RECON,ioos:station:SCCF:12:1,2009-02-07T23:00:00Z,26.4966,-82.1479,2.14,7.92,1111122 
SCCF RECON,ioos:station:SCCF:12:1,2009-02-08T00:00:00Z,26.4966,-82.1479,2.23,7.88,1111122 
SCCF RECON,ioos:station:SCCF:12:1,2009-02-08T01:00:00Z,26.4966,-82.1479,2.34,7.86,1111122 
SCCF RECON,ioos:station:SCCF:12:1,2009-02-08T02:00:00Z,26.4966,-82.1479,2.44,7.82,1111122 
SCCF RECON,ioos:station:SCCF:12:1,2009-02-08T03:00:00Z,26.4966,-82.1479,2.5,7.81,1111122 
SCCF RECON,ioos:station:SCCF:12:1,2009-02-08T04:00:00Z,26.4966,-82.1479,2.54,7.75,1111122 
SCCF RECON,ioos:station:SCCF:12:1,2009-02-08T05:00:00Z,26.4966,-82.1479,2.52,7.78,1111122 
SCCF RECON,ioos:station:SCCF:12:1,2009-02-08T06:00:00Z,26.4966,-82.1479,2.43,7.79,1111122 
SCCF RECON,ioos:station:SCCF:12:1,2009-02-08T07:00:00Z,26.4966,-82.1479,2.27,7.84,1111122 
SCCF RECON,ioos:station:SCCF:12:1,2009-02-08T08:00:00Z,26.4966,-82.1479,2.108,7.82,1111122 
SCCF RECON,ioos:station:SCCF:12:1,2009-02-08T09:00:00Z,26.4966,-82.1479,1.96,7.76,1111122 
SCCF RECON,ioos:station:SCCF:12:1,2009-02-08T10:00:00Z,26.4966,-82.1479,1.82,7.76,1111122 
SCCF RECON,ioos:station:SCCF:12:1,2009-02-08T11:00:00Z,26.4966,-82.1479,1.691,7.72,1111122 
SCCF RECON,ioos:station:SCCF:12:1,2009-02-08T12:00:00Z,26.4966,-82.1479,1.589,7.61,1111122 
SCCF RECON,ioos:station:SCCF:12:1,2009-02-08T13:00:00Z,26.4966,-82.1479,1.551,7.62,1111122 
SCCF RECON,ioos:station:SCCF:12:1,2009-02-08T14:00:00Z,26.4966,-82.1479,1.68,7.64,1111122 
SCCF RECON,ioos:station:SCCF:12:1,2009-02-08T15:00:00Z,26.4966,-82.1479,1.861,7.69,1111122 
SCCF RECON,ioos:station:SCCF:12:1,2009-02-08T16:00:00Z,26.4966,-82.1479,2.0,7.73,1111122 
SCCF RECON,ioos:station:SCCF:12:1,2009-02-08T17:00:00Z,26.4966,-82.1479,2.104,7.8,1111122 
SCCF RECON,ioos:station:SCCF:12:1,2009-02-08T18:00:00Z,26.4966,-82.1479,2.16,7.75,1111122 
SCCF RECON,ioos:station:SCCF:12:1,2009-02-08T19:00:00Z,26.4966,-82.1479,2.15,7.93,1111122 
SCCF RECON,ioos:station:SCCF:12:1,2009-02-08T20:00:00Z,26.4966,-82.1479,2.065,7.9,1111122 
SCCF RECON,ioos:station:SCCF:12:1,2009-02-08T21:00:00Z,26.4966,-82.1479,1.976,7.89,1111122 
SCCF RECON,ioos:station:SCCF:12:1,2009-02-08T22:00:00Z,26.4966,-82.1479,1.948,7.85,1111122 
SCCF RECON,ioos:station:SCCF:12:1,2009-02-08T23:00:00Z,26.4966,-82.1479,1.97,7.92,1111122 
SCCF RECON,ioos:station:SCCF:12:1,2009-02-09T00:00:00Z,26.4966,-82.1479,2.043,7.95,1111122 
SCCF RECON,ioos:station:SCCF:12:1,2009-02-09T01:00:00Z,26.4966,-82.1479,2.149,7.84,1111122 
SCCF RECON,ioos:station:SCCF:12:1,2009-02-09T02:00:00Z,26.4966,-82.1479,2.28,7.83,1111122 
SCCF RECON,ioos:station:SCCF:12:1,2009-02-09T03:00:00Z,26.4966,-82.1479,2.38,7.77,1111122 
SCCF RECON,ioos:station:SCCF:12:1,2009-02-09T04:00:00Z,26.4966,-82.1479,2.46,7.65,1111122 
SCCF RECON,ioos:station:SCCF:12:1,2009-02-09T05:00:00Z,26.4966,-82.1479,2.515,7.64,1111122 
SCCF RECON,ioos:station:SCCF:12:1,2009-02-09T06:00:00Z,26.4966,-82.1479,2.51,7.76,1111122 
SCCF RECON,ioos:station:SCCF:12:1,2009-02-09T07:00:00Z,26.4966,-82.1479,2.4,7.81,1111122 
SCCF RECON,ioos:station:SCCF:12:1,2009-02-09T08:00:00Z,26.4966,-82.1479,2.237,7.83,1111122 
SCCF RECON,ioos:station:SCCF:12:1,2009-02-09T09:00:00Z,26.4966,-82.1479,2.08,7.82,1111122 
SCCF RECON,ioos:station:SCCF:12:1,2009-02-09T10:00:00Z,26.4966,-82.1479,1.93,7.79,1111122 
SCCF RECON,ioos:station:SCCF:12:1,2009-02-09T11:00:00Z,26.4966,-82.1479,1.79,7.63,1111122 
SCCF RECON,ioos:station:SCCF:12:1,2009-02-09T12:00:00Z,26.4966,-82.1479,1.676,7.6,1111122 
SCCF RECON,ioos:station:SCCF:12:1,2009-02-09T13:00:00Z,26.4966,-82.1479,1.603,7.55,1111122 
SCCF RECON,ioos:station:SCCF:12:1,2009-02-09T14:00:00Z,26.4966,-82.1479,1.65,7.5,1111122 
SCCF RECON,ioos:station:SCCF:12:1,2009-02-09T15:00:00Z,26.4966,-82.1479,1.854,7.44,1111122 
SCCF RECON,ioos:station:SCCF:12:1,2009-02-09T16:00:00Z,26.4966,-82.1479,1.992,7.55,1111122 
SCCF RECON,ioos:station:SCCF:12:1,2009-02-09T17:00:00Z,26.4966,-82.1479,2.115,7.64,1111122 
SCCF RECON,ioos:station:SCCF:12:1,2009-02-09T18:00:00Z,26.4966,-82.1479,2.214,7.69,1111122 
SCCF RECON,ioos:station:SCCF:12:1,2009-02-09T20:00:00Z,26.4966,-82.1479,2.232,7.92,1111122 
SCCF RECON,ioos:station:SCCF:12:1,2009-02-09T21:00:00Z,26.4966,-82.1479,2.121,7.92,1111122 
SCCF RECON,ioos:station:SCCF:12:1,2009-02-09T22:00:00Z,26.4966,-82.1479,2.02,7.99,1111122 
SCCF RECON,ioos:station:SCCF:12:1,2009-02-09T23:00:00Z,26.4966,-82.1479,1.97,8.06,1111122 
SCCF RECON,ioos:station:SCCF:12:1,2009-02-10T00:00:00Z,26.4966,-82.1479,1.966,8.02,1111122 
SCCF RECON,ioos:station:SCCF:12:1,2009-02-10T01:00:00Z,26.4966,-82.1479,2.032,7.92,1111122 
SCCF RECON,ioos:station:SCCF:12:1,2009-02-10T02:00:00Z,26.4966,-82.1479,2.15,7.82,1111122 
SCCF RECON,ioos:station:SCCF:12:1,2009-02-10T03:00:00Z,26.4966,-82.1479,2.29,7.84,1111122 
SCCF RECON,ioos:station:SCCF:12:1,2009-02-10T04:00:00Z,26.4966,-82.1479,2.4,7.8,1111122 
SCCF RECON,ioos:station:SCCF:12:1,2009-02-10T05:00:00Z,26.4966,-82.1479,2.489,7.75,1111122 
SCCF RECON,ioos:station:SCCF:12:1,2009-02-10T06:00:00Z,26.4966,-82.1479,2.53,7.67,1111122 
SCCF RECON,ioos:station:SCCF:12:1,2009-02-10T07:00:00Z,26.4966,-82.1479,2.49,7.77,1111122 
SCCF RECON,ioos:station:SCCF:12:1,2009-02-10T08:00:00Z,26.4966,-82.1479,2.37,7.85,1111122 
SCCF RECON,ioos:station:SCCF:12:1,2009-02-10T09:00:00Z,26.4966,-82.1479,2.22,7.78,1111122 
SCCF RECON,ioos:station:SCCF:12:1,2009-02-10T10:00:00Z,26.4966,-82.1479,2.066,7.8,1111122 
SCCF RECON,ioos:station:SCCF:12:1,2009-02-10T11:00:00Z,26.4966,-82.1479,1.926,7.76,1111122 
SCCF RECON,ioos:station:SCCF:12:1,2009-02-10T12:00:00Z,26.4966,-82.1479,1.801,7.71,1111122 
SCCF RECON,ioos:station:SCCF:12:1,2009-02-10T13:00:00Z,26.4966,-82.1479,1.708,7.58,1111122 
SCCF RECON,ioos:station:SCCF:12:1,2009-02-10T14:00:00Z,26.4966,-82.1479,1.68,7.61,1111122 
SCCF RECON,ioos:station:SCCF:12:1,2009-02-10T15:00:00Z,26.4966,-82.1479,1.821,7.53,1111122 
SCCF RECON,ioos:station:SCCF:12:1,2009-02-10T16:00:00Z,26.4966,-82.1479,2.01,7.57,1111122 
SCCF RECON,ioos:station:SCCF:12:1,2009-02-10T17:00:00Z,26.4966,-82.1479,2.152,7.63,1111122 
SCCF RECON,ioos:station:SCCF:12:1,2009-02-10T18:00:00Z,26.4966,-82.1479,2.242,7.61,1111122 
SCCF RECON,ioos:station:SCCF:12:1,2009-02-10T19:00:00Z,26.4966,-82.1479,2.3,7.7,1111122 
SCCF RECON,ioos:station:SCCF:12:1,2009-02-10T20:00:00Z,26.4966,-82.1479,2.295,7.81,1111122 
SCCF RECON,ioos:station:SCCF:12:1,2009-02-10T21:00:00Z,26.4966,-82.1479,2.213,7.76,1111122 
SCCF RECON,ioos:station:SCCF:12:1,2009-02-10T22:00:00Z,26.4966,-82.1479,2.105,7.66,1111122 
SCCF RECON,ioos:station:SCCF:12:1,2009-02-10T23:00:00Z,26.4966,-82.1479,2.02,7.68,1111122 
SCCF RECON,ioos:station:SCCF:12:1,2009-02-11T00:00:00Z,26.4966,-82.1479,1.97,7.67,1111122 
SCCF RECON,ioos:station:SCCF:12:1,2009-02-11T01:00:00Z,26.4966,-82.1479,1.94,7.64,1111122 
SCCF RECON,ioos:station:SCCF:12:1,2009-02-11T02:00:00Z,26.4966,-82.1479,1.98,7.58,1111122 
SCCF RECON,ioos:station:SCCF:12:1,2009-02-11T03:00:00Z,26.4966,-82.1479,2.11,7.61,1111122 
SCCF RECON,ioos:station:SCCF:12:1,2009-02-11T04:00:00Z,26.4966,-82.1479,2.281,7.59,1111122 
SCCF RECON,ioos:station:SCCF:12:1,2009-02-11T05:00:00Z,26.4966,-82.1479,2.43,7.52,1111122 
SCCF RECON,ioos:station:SCCF:12:1,2009-02-11T06:00:00Z,26.4966,-82.1479,2.53,7.49,1111122 
SCCF RECON,ioos:station:SCCF:12:1,2009-02-11T07:00:00Z,26.4966,-82.1479,2.57,7.49,1111122 
SCCF RECON,ioos:station:SCCF:12:1,2009-02-11T08:00:00Z,26.4966,-82.1479,2.51,7.57,1111122 
SCCF RECON,ioos:station:SCCF:12:1,2009-02-11T09:00:00Z,26.4966,-82.1479,2.375,7.58,1111122 
SCCF RECON,ioos:station:SCCF:12:1,2009-02-11T10:00:00Z,26.4966,-82.1479,2.225,7.56,1111122 
SCCF RECON,ioos:station:SCCF:12:1,2009-02-11T11:00:00Z,26.4966,-82.1479,2.092,7.51,1111122 
SCCF RECON,ioos:station:SCCF:12:1,2009-02-11T12:00:00Z,26.4966,-82.1479,1.979,7.52,1111122 
SCCF RECON,ioos:station:SCCF:12:1,2009-02-11T13:00:00Z,26.4966,-82.1479,1.878,7.48,1111122 
SCCF RECON,ioos:station:SCCF:12:1,2009-02-11T14:00:00Z,26.4966,-82.1479,1.819,7.27,1111122 
SCCF RECON,ioos:station:SCCF:12:1,2009-02-11T15:00:00Z,26.4966,-82.1479,1.86,7.38,1111122 
SCCF RECON,ioos:station:SCCF:12:1,2009-02-11T16:00:00Z,26.4966,-82.1479,2.04,7.4,1111122 
SCCF RECON,ioos:station:SCCF:12:1,2009-02-11T17:00:00Z,26.4966,-82.1479,2.207,7.37,1111122 
SCCF RECON,ioos:station:SCCF:12:1,2009-02-11T18:00:00Z,26.4966,-82.1479,2.301,7.49,1111122 
SCCF RECON,ioos:station:SCCF:12:1,2009-02-11T19:00:00Z,26.4966,-82.1479,2.379,7.52,1111122 
SCCF RECON,ioos:station:SCCF:12:1,2009-02-11T20:00:00Z,26.4966,-82.1479,2.394,7.47,1111122 
SCCF RECON,ioos:station:SCCF:12:1,2009-02-11T21:00:00Z,26.4966,-82.1479,2.339,7.43,1111122 